Terug naar catalogus

BREEZE-M R/B

ActiefHEO
NORAD 31104·ROCKET BODY·🇷🇺 Russia

Gelanceerd Apr 9, 2007 vanaf Baikonur Cosmodrome

Loading…

Volgende Passages (komende 24 uur)

TLE

VersSource: Space-Track

Epoch: Sep 14, 2026, 12:29 UTC

1 31104U 07009C   26257.52053535 -.00000054  00000-0  00000+0 0  9994
2 31104  11.8649 266.4683 5661832 130.7649 286.9206  1.96445417139474

Volg BREEZE-M R/B in realtime met AllMySat

Download on the App Store